Showing default

FLOCK 4G 35, 62683

Orbit data source: Space-Track

FLOCK 4G 35, 62683 is a payload satellite owned by Planet (US) in SSO that was launched on Tue, 14 Jan 2025 UTC via an FALCON 9 launch vehicle from the Air Force Western Test Range (AFWTR). Payload-class satellites include a variety of spacecraft equipped with specific instruments for various scientific and technological missions. These include communications satellites like Starlink; space stations such as the ISS; scientific satellites like the Hubble; Earth observation satellites from companies like Planet Labs, Umbra, and HawkEye 360; GPS; miniature CubeSats for education and research; and military/defense satellites.

Loading next visibility...
Identifier
62683, 2025-009CC
Orbit
SSO
Country
Flag of USUS
Related business
Manufacturer
Planet
Mission
Non-operational Commercial Imaging
Bus & Motor
CUBESAT 3U, Unknown motor
Mass
5.7 kg wet, 5.7 kg dry
Launch date (UTC)
2025-01-14 (1 year ago)
Launch vehicle
FALCON 9
Launch site
Air Force Western Test Range (AFWTR)
Object type
Payload
Rocket body
Debris
Shape & HBR
Box + 2 Pan, 1.0 m
Radar Cross Section
0.072 m², Medium (>0.1 m² and < 1m²)

Expand to show TLE details & history
Last TLE update: 8 hours ago

TLE from 8 hours ago
0 FLOCK 4G 35
1 62683U 25009CC  26126.17576673  .00028668  00000-0  78763-3 0  9994
2 62683  97.3965 209.4490 0005224 111.8757 248.3044 15.37172499130217
Epoch: 2026-05-06T04:13Z
TLE epoch observation values (Epoch: 2026-05-06T04:13:06.245Z)
Latitude
0.00004°
Longitude
-77.86705°
Altitude
458.91 km
Speed
7.637 km/s
True Right ascension
13h 57m 47s
True Declination
0° 00' 00"
Sunlit
Object was in full shadow at epoch
Visualization orbit readout
Latitude
Unknown
Longitude
Unknown
Altitude
Unknown
Speed
Unknown
Apparent Right ascension
Unknown
Apparent Declination
Unknown
Sunlit
N/A
Visualization observer readout
Local Sidereal Time
20:28:48
Azimuth
Unknown
Elevation
Unknown
Doppler factor
Unknown
Orbital elements
Apogee altitude
454.985 km
Perigee altitude
447.85 km
Semi-major axis
6,829.555 km
Eccentricity
0.00052
Inclination
97.3965°
RAAN
209.449°
Arg. of periapsis
111.8757°
True anomaly
248.24879°
Mean anomaly
248.3044°
Eccentric anomaly
248.27659°
Mean motion
3.84552 °/min
Orbital period
93.62 mins
BSTAR
0.00078763
Loading maneuver chart data...
Computing Atmospheric mass density...
Loading historical data...
Loading historical data...
Loading historical data...
Loading historical data...
Loading historical data...
Loading historical data...
Loading historical data...

Documentation

Showing up to 5 results
|